Tiempo cada hora Muravische

Hoy, 21 Octubre, Miércoles

Tiempo Temperatura Precipitaciones Viento Presión Humedad
00:00 -1°C° 0 mm 2 mps 748 mmHg 84%
01:00 -1°C° 0 mm 2 mps 748 mmHg 84%
02:00 +1°C° 0 mm 2 mps 748 mmHg 83%
03:00 +1°C° 0 mm 2 mps 748 mmHg 83%
04:00 +1°C° 0 mm 2 mps 748 mmHg 84%
05:00 +2°C° 0 mm 2 mps 747 mmHg 85%
06:00 +2°C° 0.1 mm 2 mps 747 mmHg 85%
07:00 +2°C° 0.1 mm 2 mps 747 mmHg 86%
08:00 +3°C° 0 mm 2 mps 747 mmHg 86%
09:00 +2°C° 0.2 mm 3 mps 746 mmHg 88%
10:00 +2°C° 0.2 mm 3 mps 746 mmHg 90%
11:00 +2°C° 0.2 mm 3 mps 746 mmHg 93%
12:00 +2°C° 0.5 mm 3 mps 745 mmHg 93%
13:00 +2°C° 0.5 mm 3 mps 745 mmHg 94%
14:00 +3°C° 0 mm 3 mps 744 mmHg 93%
15:00 +4°C° 0.1 mm 2 mps 744 mmHg 94%
16:00 +4°C° 0.1 mm 2 mps 743 mmHg 94%
17:00 +4°C° 0.1 mm 2 mps 743 mmHg 95%
18:00 +4°C° 0 mm 2 mps 743 mmHg 96%
19:00 +5°C° 0 mm 1 mps 743 mmHg 96%
20:00 +5°C° 0 mm 1 mps 743 mmHg 97%
21:00 +5°C° 0 mm 1 mps 743 mmHg 97%
22:00 +6°C° 0 mm 1 mps 743 mmHg 97%
23:00 +6°C° 0 mm 1 mps 743 mmHg 98%

Mañana, 22 Octubre, Jueves

Tiempo Temperatura Precipitaciones Viento Presión Humedad
00:00 +5°C° 0 mm 1 mps 743 mmHg 98%
01:00 +5°C° 0 mm 1 mps 743 mmHg 98%
02:00 +5°C° 0 mm 1 mps 743 mmHg 98%
03:00 +4°C° 0 mm 2 mps 743 mmHg 98%
04:00 +4°C° 0 mm 2 mps 742 mmHg 98%
05:00 +4°C° 0 mm 2 mps 742 mmHg 97%
06:00 +3°C° 0.1 mm 3 mps 742 mmHg 96%
07:00 +4°C° 0.1 mm 3 mps 742 mmHg 94%
08:00 +4°C° 0.1 mm 3 mps 741 mmHg 93%
09:00 +5°C° 0.7 mm 4 mps 741 mmHg 93%
10:00 +5°C° 0.7 mm 4 mps 740 mmHg 93%
11:00 +5°C° 0.7 mm 4 mps 740 mmHg 94%
12:00 +6°C° 0.2 mm 4 mps 739 mmHg 93%
13:00 +6°C° 0.2 mm 4 mps 739 mmHg 92%
14:00 +7°C° 0.2 mm 5 mps 738 mmHg 91%
15:00 +7°C° 0.1 mm 5 mps 738 mmHg 91%
16:00 +8°C° 0.1 mm 5 mps 737 mmHg 90%
17:00 +8°C° 0.1 mm 5 mps 737 mmHg 89%
18:00 +9°C° 0 mm 5 mps 736 mmHg 88%
19:00 +10°C° 0 mm 5 mps 736 mmHg 88%
20:00 +10°C° 0 mm 5 mps 736 mmHg 87%
21:00 +10°C° 0 mm 5 mps 736 mmHg 86%
22:00 +11°C° 0 mm 6 mps 736 mmHg 84%
23:00 +11°C° 0 mm 6 mps 736 mmHg 83%

Pasado mañana, 23 Octubre, Viernes

Tiempo Temperatura Precipitaciones Viento Presión Humedad
00:00 +11°C° 0 mm 6 mps 736 mmHg 83%
01:00 +11°C° 0 mm 6 mps 737 mmHg 83%
02:00 +10°C° 0 mm 5 mps 737 mmHg 83%
03:00 +10°C° 0 mm 5 mps 737 mmHg 84%
04:00 +10°C° 0 mm 5 mps 738 mmHg 86%
05:00 +10°C° 0 mm 4 mps 738 mmHg 87%
06:00 +9°C° 0 mm 5 mps 738 mmHg 87%
07:00 +9°C° 0 mm 5 mps 738 mmHg 88%
08:00 +9°C° 0 mm 5 mps 738 mmHg 89%
09:00 +10°C° 0 mm 5 mps 738 mmHg 87%
10:00 +10°C° 0 mm 5 mps 737 mmHg 86%
11:00 +12°C° 0 mm 5 mps 737 mmHg 84%
12:00 +12°C° 0.3 mm 4 mps 737 mmHg 85%
13:00 +12°C° 0.3 mm 4 mps 736 mmHg 86%
14:00 +12°C° 0.3 mm 3 mps 736 mmHg 87%
15:00 +12°C° 0.8 mm 4 mps 736 mmHg 88%
16:00 +12°C° 0.8 mm 4 mps 735 mmHg 89%
17:00 +12°C° 0.8 mm 4 mps 735 mmHg 91%
18:00 +11°C° 0.3 mm 4 mps 735 mmHg 90%
19:00 +11°C° 0.3 mm 4 mps 735 mmHg 89%
20:00 +11°C° 0.3 mm 4 mps 735 mmHg 88%
21:00 +10°C° 0 mm 4 mps 736 mmHg 88%
22:00 +10°C° 0 mm 4 mps 736 mmHg 87%
23:00 +8°C° 0 mm 4 mps 736 mmHg 86%

24 Octubre, Sábado

Tiempo Temperatura Precipitaciones Viento Presión Humedad
00:00 +8°C° 0 mm 4 mps 736 mmHg 88%
01:00 +7°C° 0 mm 4 mps 737 mmHg 89%
02:00 +7°C° 0 mm 4 mps 737 mmHg 90%
03:00 +8°C° 0 mm 3 mps 737 mmHg 90%
04:00 +8°C° 0 mm 3 mps 737 mmHg 91%
05:00 +7°C° 0 mm 3 mps 737 mmHg 91%
06:00 +7°C° 0 mm 3 mps 737 mmHg 91%
07:00 +7°C° 0 mm 2 mps 738 mmHg 91%
08:00 +7°C° 0 mm 2 mps 738 mmHg 91%
09:00 +8°C° 0 mm 2 mps 738 mmHg 89%
10:00 +8°C° 0 mm 3 mps 738 mmHg 88%
11:00 +8°C° 0 mm 3 mps 739 mmHg 86%
12:00 +9°C° 0 mm 2 mps 739 mmHg 84%
13:00 +9°C° 0 mm 2 mps 739 mmHg 82%
14:00 +9°C° 0 mm 2 mps 739 mmHg 80%
15:00 +8°C° 0 mm 2 mps 739 mmHg 84%
16:00 +9°C° 0 mm 1 mps 739 mmHg 88%
17:00 +8°C° 0 mm 1 mps 738 mmHg 91%
18:00 +8°C° 0 mm 1 mps 739 mmHg 92%
19:00 +8°C° 0 mm 1 mps 739 mmHg 94%
20:00 +7°C° 0 mm 1 mps 739 mmHg 95%
21:00 +7°C° 0 mm 1 mps 738 mmHg 95%
22:00 +7°C° 0 mm 1 mps 738 mmHg 95%
23:00 +7°C° 0 mm 1 mps 738 mmHg 96%

25 Octubre, Domingo

Tiempo Temperatura Precipitaciones Viento Presión Humedad
00:00 +6°C° 0 mm 0 mps 738 mmHg 96%
01:00 +6°C° 0 mm 0 mps 738 mmHg 96%
02:00 +6°C° 0 mm 0 mps 738 mmHg 96%
03:00 +6°C° 0 mm 0 mps 738 mmHg 96%
04:00 +6°C° 0 mm 0 mps 738 mmHg 96%
05:00 +6°C° 0 mm 0 mps 738 mmHg 96%
06:00 +6°C° 0 mm 0 mps 738 mmHg 96%
07:00 +7°C° 0 mm 1 mps 738 mmHg 95%
08:00 +7°C° 0 mm 1 mps 738 mmHg 95%
09:00 +8°C° 0 mm 1 mps 739 mmHg 90%
10:00 +9°C° 0 mm 1 mps 739 mmHg 85%
11:00 +10°C° 0 mm 1 mps 740 mmHg 80%
12:00 +10°C° 0 mm 1 mps 740 mmHg 80%
13:00 +9°C° 0 mm 2 mps 741 mmHg 81%
14:00 +9°C° 0 mm 2 mps 741 mmHg 81%
15:00 +9°C° 0 mm 2 mps 741 mmHg 85%
16:00 +8°C° 0 mm 2 mps 742 mmHg 89%
17:00 +7°C° 0 mm 2 mps 742 mmHg 93%
18:00 +7°C° 0 mm 2 mps 743 mmHg 94%
19:00 +7°C° 0 mm 2 mps 743 mmHg 95%
20:00 +6°C° 0 mm 2 mps 744 mmHg 95%
21:00 +7°C° 0 mm 2 mps 744 mmHg 95%
22:00 +7°C° 0 mm 2 mps 744 mmHg 94%
23:00 +7°C° 0 mm 2 mps 745 mmHg 94%

26 Octubre, Lunes

Tiempo Temperatura Precipitaciones Viento Presión Humedad
00:00 +7°C° 0 mm 2 mps 745 mmHg 95%
01:00 +7°C° 0 mm 1 mps 745 mmHg 95%
02:00 +7°C° 0 mm 1 mps 746 mmHg 96%
03:00 +7°C° 0 mm 1 mps 746 mmHg 96%
04:00 +6°C° 0 mm 1 mps 747 mmHg 96%
05:00 +6°C° 0 mm 1 mps 747 mmHg 96%
06:00 +6°C° 0 mm 1 mps 747 mmHg 96%
07:00 +6°C° 0 mm 1 mps 748 mmHg 95%
08:00 +6°C° 0 mm 1 mps 748 mmHg 95%
09:00 +6°C° 0 mm 0 mps 748 mmHg 88%
10:00 +7°C° 0 mm 0 mps 749 mmHg 82%
11:00 +9°C° 0 mm 0 mps 749 mmHg 75%
12:00 +9°C° 0 mm 0 mps 749 mmHg 74%
13:00 +9°C° 0 mm 0 mps 749 mmHg 72%
14:00 +9°C° 0 mm 0 mps 750 mmHg 71%
15:00 +8°C° 0 mm 0 mps 750 mmHg 77%
16:00 +7°C° 0 mm 0 mps 750 mmHg 82%
17:00 +6°C° 0 mm 0 mps 750 mmHg 88%
18:00 +7°C° 0 mm 1 mps 750 mmHg 90%
19:00 +6°C° 0 mm 1 mps 750 mmHg 92%
20:00 +6°C° 0 mm 1 mps 750 mmHg 94%
21:00 +6°C° 0 mm 1 mps 751 mmHg 94%
22:00 +6°C° 0 mm 1 mps 751 mmHg 95%
23:00 +5°C° 0 mm 1 mps 751 mmHg 95%

27 Octubre, Martes

Tiempo Temperatura Precipitaciones Viento Presión Humedad
00:00 +4°C° 0 mm 2 mps 751 mmHg 95%
01:00 +4°C° 0 mm 2 mps 751 mmHg 96%
02:00 +4°C° 0 mm 2 mps 751 mmHg 96%
03:00 +4°C° 0 mm 2 mps 751 mmHg 96%
04:00 +4°C° 0 mm 2 mps 751 mmHg 97%
05:00 +4°C° 0 mm 2 mps 752 mmHg 97%
06:00 +4°C° 0 mm 2 mps 752 mmHg 97%
07:00 +4°C° 0 mm 2 mps 752 mmHg 97%
08:00 +4°C° 0 mm 2 mps 752 mmHg 97%
09:00 +6°C° 0 mm 2 mps 752 mmHg 92%
10:00 +7°C° 0 mm 3 mps 752 mmHg 87%
11:00 +8°C° 0 mm 3 mps 752 mmHg 82%
12:00 +9°C° 0 mm 3 mps 752 mmHg 81%
13:00 +9°C° 0 mm 3 mps 752 mmHg 79%
14:00 +9°C° 0 mm 3 mps 752 mmHg 77%
15:00 +8°C° 0 mm 3 mps 751 mmHg 81%
16:00 +7°C° 0 mm 3 mps 751 mmHg 85%
17:00 +6°C° 0 mm 2 mps 751 mmHg 89%
18:00 +6°C° 0 mm 2 mps 751 mmHg 90%
19:00 +5°C° 0 mm 3 mps 751 mmHg 90%
20:00 +5°C° 0 mm 3 mps 751 mmHg 90%
21:00 +5°C° 0 mm 3 mps 751 mmHg 89%
22:00 +5°C° 0 mm 3 mps 751 mmHg 88%
23:00 +4°C° 0 mm 3 mps 751 mmHg 87%
Mostrar más

Necesitamos Su Consentimiento

Meteoprog y nuestros Proveedores de Servicios pueden almacenar y acceder a sus datos personales como cookies, identificadores de dispositivo u otras tecnologías similares de su dispositivo y procesar dichos datos para personalizar contenido y anuncios, además de ofrecer funciones de redes sociales y analizar el tráfico.

  • Almacenar y/o acceder a información en su dispositivo

    Se puede almacenar o acceder a cookies, identificadores de dispositivo u otra información de su dispositivo para los fines anteriormente indicados.

  • Anuncios y contenido personalizados, medición de anuncios y contenido, percepciones del público, y desarrollo de productos

    Los anuncios y el contenido pueden personalizarse en base a su perfil. Se pueden añadir más datos para personalizar mejor los anuncios y contenidos. Se puede medir el rendimiento de los anuncios y contenidos. Se puede obtener la percepción sobre el público que ha visto los anuncios y contenidos. Dichos datos pueden usarse para desarrollar o mejorar la experiencia del usuario, sistemas y software.

Al hacer clic en ‘Estoy De Acuerdo’ usted permitirá el uso de las cookies, identificadores de dispositivo, balizas web u otras tecnologías similares indicadas. Su configuración puede cambiarse desde el navegador de su dispositivo.

Para ciertos fines, los intereses legítimos pueden ser considerados por encima del consentimiento. Puede leer más sobre ello en nuestra Política de Privacidad y Cookies.